User: anonymous   Login
Location: Unspecified
(0.0000°N, 0.0000°E)
Time: 23:20:57
(UTC+01:00)
Language:

Cosmos 1943 Rocket - Orbit

View from above orbital plane
View from above orbital plane
View from above satellite
View from above satellite

Ground track
Ground track

The orbit data is extracted from the following two-line orbital elements,

1 19120U 88039B   14350.82468970  .00000174  00000-0  10615-3 0  2281
2 19120 071.0165 094.6794 0020467 153.6945 349.2133 14.19070518376812
Epoch (UTC): 16 December 2014 19:47:33
Eccentricity: 0.0020467
inclination: 71.0165°
perigee height: 814 km
apogee height: 843 km
right ascension of ascending node: 94.6794°
argument of perigee: 153.6945°
revolutions per day: 14.19070518
mean anomaly at epoch: 349.2133°
orbit number at epoch: 37681

The dashed part of the orbit path shows where the satellite is in the earth's shadow,  

DLR